Location: Montreal
(45.5087°N, 73.5540°W)
Time: 09:23:17
(UTC-05:00)

BlueWalker 3 - Visible Passes

Search period start: 30 January 2023 00:00
Search period end: 09 February 2023 00:00
Orbit: 499 x 517 km, 53.2° (Epoch: 29 January)

Date Brightness Start Highest point End Pass type
(mag) Time Alt. Az. Time Alt. Az. Time Alt. Az.
30 Jan 2.5 17:47:53 10° WSW 17:51:41 52° NNW 17:55:07 12° NE visible
30 Jan 3.9 19:27:35 10° WNW 19:29:55 23° NNW 19:29:55 23° NNW visible
31 Jan 2.5 17:28:58 10° WSW 17:32:45 51° NNW 17:36:34 10° NE visible
31 Jan 3.5 19:08:41 10° WNW 19:11:48 26° N 19:11:48 26° N visible
01 Feb 3.4 18:49:46 10° WNW 18:53:05 26° N 18:53:39 25° NNE visible
02 Feb 3.4 18:30:50 10° WNW 18:34:09 26° N 18:35:31 21° NNE visible
02 Feb 5.0 20:09:54 10° NW 20:10:18 12° NW 20:10:18 12° NW visible
03 Feb 3.4 18:11:53 10° WNW 18:15:11 26° N 18:17:21 16° NE visible
03 Feb 4.4 19:50:55 10° NW 19:52:09 18° NW 19:52:09 18° NW visible
04 Feb 3.4 17:52:56 10° WNW 17:56:14 26° N 17:59:12 12° NE visible
04 Feb 3.8 19:31:56 10° NW 19:34:00 26° NNW 19:34:00 26° NNW visible
05 Feb 3.4 17:33:57 10° WNW 17:37:15 25° N 17:40:33 10° ENE visible
05 Feb 3.0 19:12:55 10° NW 19:15:52 35° N 19:15:52 35° N visible
06 Feb 2.6 18:53:54 10° NW 18:57:36 39° NNE 18:57:46 39° NNE visible
06 Feb 5.4 20:32:32 10° WNW 20:32:34 10° WNW 20:32:34 10° WNW visible
07 Feb 2.6 18:34:53 10° NW 18:38:35 41° NNE 18:39:44 32° ENE visible
07 Feb 4.8 20:13:31 10° WNW 20:14:31 17° WNW 20:14:31 17° WNW visible
08 Feb 2.5 18:15:50 10° NW 18:19:33 42° NNE 18:21:45 21° E visible
08 Feb 4.0 19:54:30 10° WNW 19:56:33 27° W 19:56:33 27° W visible
